Date String (YYYY-MM-DD hh:mm:ss) UTC,Instrument flags,absolute air pressure of the measurement (hPa),sample flow rate (lpm),inlet stack bypass flow (lpm),air temperature of the measurement (°C),ambient temperature measured by the external sensor (°C),aerosol sample conditioner tube jacket temperature (°C),OPC LED temperature (°C),internal box temperature (°C),relative humidity of the measurement (%),span deviation,mass concentration of particles derived from Lorenz-Mie calculation of OPC scattering (μg/m³),mass concentration of particles derived from Lorenz-Mie calculation of OPC scattering (μg/m³),mass concentration of particles derived from Lorenz-Mie calculation of OPC scattering (μg/m³)
DateTimeUTC,F1_M11,P_M11,Q1_M11,Q2_M11,T1_M11,T2_M11,T3_M11,T4_M11,T5_M11,U1_M11,ZSPAN_M11,X0_M11,X2_M11,X1_M11
2023-12-15 06:00:00,SystemResetWarning,0832.5,5.00,000.00,018.7,017.6,000.0,027.2,020.0,23.6,0000.6,0018.99,0013.57,0013.02
2023-12-15 06:01:00,SystemResetWarning,0832.5,5.00,000.00,018.7,017.6,000.0,027.2,020.0,23.6,0000.8,0018.52,0013.28,0012.80
2023-12-15 06:02:00,SystemResetWarning,0832.5,5.00,000.00,018.7,017.6,000.0,027.2,020.0,23.6,0000.8,0018.32,0013.20,0012.76
2023-12-15 06:03:00,SystemResetWarning,0832.5,5.00,000.00,018.7,017.6,000.0,027.2,020.0,23.6,0000.6,0017.90,0012.78,0012.33
2023-12-15 06:04:00,SystemResetWarning,0832.5,5.00,000.00,018.7,017.5,000.0,027.2,020.0,23.6,0000.4,0017.47,0012.49,0012.06
2023-12-15 06:05:00,SystemResetWarning,0832.5,5.00,000.00,018.7,017.5,000.0,027.2,020.0,23.6,0000.4,0017.68,0012.51,0012.07
2023-12-15 06:06:00,SystemResetWarning,0832.5,5.00,000.00,018.7,017.6,000.0,027.2,020.2,23.5,0000.5,0017.78,0012.42,0011.97
2023-12-15 06:07:00,SystemResetWarning,0832.6,5.01,000.00,018.8,018.1,000.0,027.2,020.6,23.4,0000.4,0017.98,0012.54,0012.09
2023-12-15 06:08:00,SystemResetWarning,0832.6,5.00,000.00,018.9,018.9,000.0,027.2,020.9,23.3,0000.1,0018.23,0012.69,0012.22
2023-12-15 06:09:00,SystemResetWarning,0832.6,5.00,000.00,019.0,018.9,000.0,027.2,020.7,23.2,0000.1,0018.54,0012.75,0012.25
2023-12-15 06:10:00,SystemResetWarning,0832.5,5.00,000.00,019.0,018.8,000.0,027.2,020.5,23.2,0000.1,0018.94,0012.78,0012.25
2023-12-15 06:11:00,SystemResetWarning,0832.5,4.99,000.00,019.0,018.7,000.0,027.2,020.5,23.1,-000.1,0018.67,0012.58,0012.05
2023-12-15 06:12:00,SystemResetWarning,0832.5,4.99,000.00,019.0,018.6,000.0,027.2,020.3,23.1,-000.2,0018.38,0012.35,0011.82
2023-12-15 06:13:00,SystemResetWarning,0832.5,5.01,000.00,019.0,018.5,000.0,027.2,020.3,23.1,-000.3,0018.27,0012.22,0011.67
2023-12-15 06:14:00,SystemResetWarning,0832.5,5.00,000.00,018.9,018.3,000.0,027.2,020.2,23.1,-000.1,0018.20,0012.22,0011.69
2023-12-15 06:15:00,SystemResetWarning,0832.5,5.00,000.00,018.9,018.2,000.0,027.2,020.1,23.1,0000.0,0018.12,0012.11,0011.59
2023-12-15 06:16:00,SystemResetWarning,0832.5,5.00,000.00,018.9,018.1,000.0,027.2,020.1,23.2,0000.0,0017.72,0011.92,0011.39
2023-12-15 06:17:00,SystemResetWarning,0832.5,5.00,000.00,018.8,018.1,000.0,027.2,020.0,23.2,0000.0,0017.07,0011.61,0011.10
2023-12-15 06:18:00,SystemResetWarning,0832.5,5.00,000.00,018.8,018.0,000.0,027.2,020.0,23.2,0000.1,0016.69,0011.32,0010.81
2023-12-15 06:19:00,SystemResetWarning,0832.5,5.00,000.00,018.8,017.9,000.0,027.2,020.0,23.2,0000.1,0016.35,0011.06,0010.56
2023-12-15 06:20:00,SystemResetWarning,0832.5,5.00,000.00,018.8,017.9,000.0,027.2,020.0,23.3,0000.1,0016.46,0010.88,0010.39
2023-12-15 06:21:00,SystemResetWarning,0832.5,5.00,000.00,018.8,017.8,000.0,027.2,020.0,23.3,0000.1,0015.89,0010.67,0010.20
2023-12-15 06:22:00,SystemResetWarning,0832.5,4.99,000.00,018.7,017.8,000.0,027.2,020.0,23.4,0000.3,0015.76,0010.55,0010.08
2023-12-15 06:23:00,SystemResetWarning,0832.5,5.00,000.00,018.7,017.8,000.0,027.2,020.0,23.5,0000.4,0015.96,0010.53,0010.04
2023-12-15 06:24:00,SystemResetWarning,0832.5,4.99,000.00,018.7,017.8,000.0,027.2,020.0,23.5,0000.5,0016.14,0010.50,0010.00
2023-12-15 06:25:00,SystemResetWarning,0832.5,5.00,000.00,018.7,017.8,000.0,027.2,020.0,23.6,0000.5,0016.16,0010.41,0009.92
2023-12-15 06:26:00,SystemResetWarning,0832.5,5.01,000.00,018.7,017.8,000.0,027.2,020.0,23.6,0000.6,0016.07,0010.40,0009.93
2023-12-15 06:27:00,SystemResetWarning,0832.5,5.00,000.00,018.7,017.7,000.0,027.2,020.0,23.7,0000.8,0015.98,0010.38,0009.92
2023-12-15 06:28:00,SystemResetWarning,0832.6,5.00,000.00,018.7,017.7,000.0,027.2,020.0,23.8,0001.0,0015.97,0010.39,0009.93
2023-12-15 06:29:00,SystemResetWarning,0832.6,5.00,000.00,018.7,017.7,000.0,027.2,020.0,23.9,0001.1,0016.01,0010.43,0009.95
2023-12-15 06:30:00,SystemResetWarning,0832.6,5.00,000.00,018.7,017.7,000.0,027.2,020.0,24.0,0001.2,0016.15,0010.49,0009.98
2023-12-15 06:31:00,SystemResetWarning,0832.6,5.00,000.00,018.7,017.7,000.0,027.2,020.0,24.0,0001.2,0016.48,0010.54,0010.03
2023-12-15 06:32:00,SystemResetWarning,0832.7,5.00,000.00,018.7,017.7,000.0,027.2,020.0,24.0,0001.0,0016.29,0010.69,0010.17
2023-12-15 06:33:00,SystemResetWarning,0832.7,5.00,000.00,018.7,017.7,000.0,027.2,020.0,24.0,0001.0,0016.44,0010.75,0010.25
2023-12-15 06:34:00,SystemResetWarning,0832.6,5.00,000.00,018.7,017.7,000.0,027.2,020.0,23.9,0001.0,0016.47,0010.64,0010.14
2023-12-15 06:35:00,SystemResetWarning,0832.7,5.00,000.00,018.7,017.7,000.0,027.2,020.0,24.1,0001.0,0016.29,0010.56,0010.07
2023-12-15 06:36:00,SystemResetWarning,0832.7,4.99,000.00,018.7,017.7,000.0,027.2,020.0,24.1,0001.1,0015.96,0010.52,0010.00
2023-12-15 06:37:00,SystemResetWarning,0832.7,5.00,000.00,018.7,017.7,000.0,027.2,020.0,24.2,0001.0,0015.64,0010.25,0009.73
2023-12-15 06:38:00,SystemResetWarning,0832.7,4.99,000.00,018.7,017.7,000.0,027.2,020.0,24.3,0000.8,0015.76,0010.26,0009.72
2023-12-15 06:39:00,SystemResetWarning,0832.9,5.00,000.00,018.7,017.7,000.0,027.2,020.0,24.3,0000.6,0016.28,0010.33,0009.77
2023-12-15 06:40:00,SystemResetWarning,0832.8,5.00,000.00,018.7,017.7,000.0,027.2,020.0,24.2,0000.5,0016.96,0010.55,0009.97
2023-12-15 06:41:00,SystemResetWarning,0832.7,5.01,000.00,018.7,017.7,000.0,027.1,020.0,24.1,0000.5,0017.25,0010.76,0010.18
2023-12-15 06:42:00,SystemResetWarning,0832.8,5.00,000.00,018.7,017.7,000.0,027.1,020.0,24.1,0000.5,0017.36,0010.92,0010.33
2023-12-15 06:43:00,SystemResetWarning,0832.8,5.00,000.00,018.7,017.7,000.0,027.1,020.0,24.0,0000.6,0017.67,0011.06,0010.43
2023-12-15 06:44:00,SystemResetWarning,0832.7,5.00,000.00,018.7,017.7,000.0,027.1,020.0,23.9,0000.7,0017.99,0011.19,0010.52
2023-12-15 06:45:00,SystemResetWarning,0832.7,5.00,000.00,018.7,017.7,000.0,027.1,020.0,23.9,0000.8,0018.26,0011.47,0010.78
2023-12-15 06:46:00,SystemResetWarning,0832.8,4.99,000.00,018.7,017.7,000.0,027.1,020.0,23.8,0000.9,0018.62,0011.81,0011.11
2023-12-15 06:47:00,SystemResetWarning,0832.8,5.00,000.00,018.7,017.7,000.0,027.1,020.0,23.8,0000.8,0018.93,0012.01,0011.31
2023-12-15 06:48:00,SystemResetWarning,0832.7,5.00,000.00,018.7,017.7,000.0,027.1,020.0,23.8,0000.8,0019.59,0012.47,0011.75
2023-12-15 06:49:00,SystemResetWarning,0832.7,4.99,000.00,018.7,017.7,000.0,027.1,020.0,23.7,0000.7,0019.90,0012.70,0011.97
2023-12-15 06:50:00,SystemResetWarning,0832.7,5.00,000.00,018.7,017.7,000.0,027.1,020.0,23.6,0000.8,0019.53,0012.80,0012.10
2023-12-15 06:51:00,SystemResetWarning,0832.7,5.00,000.00,018.7,017.7,000.0,027.1,020.0,23.6,0000.9,0019.21,0012.80,0012.12
2023-12-15 06:52:00,SystemResetWarning,0832.7,5.00,000.00,018.7,017.7,000.0,027.1,020.0,23.6,0000.9,0019.77,0012.69,0012.05
2023-12-15 06:53:00,SystemResetWarning,0832.7,4.99,000.00,018.7,017.7,000.0,027.1,020.0,23.6,0000.9,0020.35,0012.68,0012.01
2023-12-15 06:54:00,SystemResetWarning,0832.7,4.99,000.00,018.7,017.7,000.0,027.1,020.0,23.7,0001.0,0020.10,0012.72,0012.05
2023-12-15 06:55:00,SystemResetWarning,0832.7,5.00,000.00,018.7,017.7,000.0,027.1,020.0,23.7,0001.1,0019.99,0012.73,0012.09
2023-12-15 06:56:00,SystemResetWarning,0832.7,5.00,000.00,018.7,017.7,000.0,027.1,020.0,23.7,0001.1,0019.88,0012.79,0012.14
2023-12-15 06:57:00,SystemResetWarning,0832.8,5.00,000.00,018.7,017.6,000.0,027.1,020.0,23.7,0000.8,0019.73,0012.81,0012.19
2023-12-15 06:58:00,SystemResetWarning,0832.8,5.00,000.00,018.7,017.6,000.0,027.1,020.0,23.6,0000.8,0019.81,0012.85,0012.22
2023-12-15 06:59:00,SystemResetWarning,0833.1,5.00,000.00,018.7,017.6,000.0,027.1,020.0,23.6,0000.9,0019.63,0012.78,0012.18
